CW0728 Weather Reports


Display with metric or nautical units.
time (UTC)temp
F
wind
direction
speed
MPH
gust
MPH
rain 1hr
in
rain 24hr
in
rain mn
in
humidity
%
barometer
mb
20260903171510 64 204 0.0 0.0 0.00 0.15 0.15 93 1012.3
20260903170052 64 159 0.0 4.0 0.00 0.15 0.15 93 1012.1
20260903164517 64 118 0.0 0.0 0.00 0.15 0.15 94 1012.1
20260903163052 63 79 0.0 0.0 0.00 0.15 0.15 94 1012.5
20260903161535 63 148 0.0 0.0 0.00 0.15 0.15 94 1012.7
20260903160011 63 182 0.0 0.0 0.00 0.15 0.15 95 1012.9
20260903154553 63 169 0.0 0.0 0.01 0.15 0.15 95 1013.0
20260903153020 62 198 0.0 0.0 0.01 0.15 0.15 95 1013.3
20260903151606 63 173 0.0 1.0 0.01 0.15 0.15 95 1013.4
20260903150032 63 171 0.0 0.0 0.02 0.15 0.15 95 1013.6
20260903144521 62 117 0.0 3.0 0.01 0.14 0.14 95 1013.8
20260903143009 62 143 0.0 0.0 0.01 0.14 0.14 95 1013.9
20260903141546 62 114 0.0 0.0 0.02 0.14 0.14 95 1013.8
20260903140019 61 133 0.0 0.0 0.01 0.13 0.13 95 1013.9
20260903134604 61 167 0.0 1.0 0.01 0.13 0.13 94 1014.0
20260903133035 61 130 0.0 0.0 0.03 0.13 0.13 94 1013.9
20260903131517 61 156 0.0 0.0 0.02 0.12 0.12 94 1014.1
20260903130055 61 159 0.0 0.0 0.02 0.12 0.12 94 1014.2
20260903124541 61 116 0.0 0.0 0.02 0.12 0.12 93 1014.4
20260903123017 60 146 0.0 0.0 0.00 0.10 0.10 93 1014.7
20260903121552 60 213 0.0 0.0 0.00 0.10 0.10 93 1014.8
20260903120028 60 226 0.0 0.0 0.00 0.10 0.10 93 1014.9
20260903114511 60 158 0.0 0.0 0.00 0.10 0.10 93 1014.8
20260903113045 60 197 0.0 0.0 0.00 0.10 0.10 93 1014.6
20260903111530 60 142 0.0 1.0 0.00 0.10 0.10 93 1014.8
20260903110059 60 165 0.0 0.0 0.01 0.10 0.10 92 1014.6
20260903104537 60 206 0.0 0.0 0.02 0.10 0.10 92 1014.8
20260903103007 61 207 0.0 2.0 0.08 0.10 0.10 93 1015.0
20260903101549 61 170 0.0 0.0 0.10 0.10 0.10 93 1014.9
20260903100031 62 170 0.0 0.0 0.09 0.09 0.09 92 1015.0
20260903094519 62 132 0.0 0.0 0.08 0.08 0.08 92 1015.2
20260903093103 62 167 0.0 0.0 0.02 0.02 0.02 92 1015.3
20260903091536 62 167 0.0 0.0 0.00 0.00 0.00 92 1015.6
20260903090004 62 167 0.0 0.0 0.00 0.00 0.00 92 1015.5
20260903084546 62 167 0.0 0.0 0.00 0.00 0.00 93 1015.0
20260903083029 62 147 0.0 3.0 0.00 0.00 0.00 93 1015.0
20260903081502 61 121 0.0 0.0 0.00 0.00 0.00 93 1015.1
20260903080040 61 83 0.0 0.0 0.00 0.00 0.00 94 1015.3
20260903074516 61 91 0.0 0.0 0.00 0.00 0.00 93 1015.2
20260903073051 61 91 0.0 0.0 0.00 0.00 0.00 93 1015.5
20260903071531 61 91 0.0 0.0 0.00 0.00 0.00 93 1015.7
20260903070020 61 91 0.0 0.0 0.00 0.00 0.00 93 1016.0
20260903064552 61 91 0.0 0.0 0.00 0.00 0.00 93 1016.5
20260903063022 61 91 0.0 0.0 0.00 0.00 0.00 93 1016.8
20260903061559 61 91 0.0 0.0 0.00 0.00 0.00 93 1016.9
20260903060032 61 90 0.0 0.0 0.00 0.00 0.00 93 1017.2
20260903054512 61 99 0.0 0.0 0.00 0.00 0.00 93 1017.1
20260903053043 61 103 0.0 0.0 0.00 0.00 0.00 92 1017.4
20260903051528 61 101 0.0 0.0 0.00 0.00 0.00 92 1017.4
20260903050014 61 92 0.0 0.0 0.00 0.00 0.00 92 1017.5
20260903044546 61 93 0.0 0.0 0.00 0.00 0.00 92 1017.6
20260903043015 61 96 0.0 0.0 0.00 0.00 0.00 91 1017.8
20260903041554 61 99 0.0 0.0 0.00 0.00 0.00 91 1018.1
20260903040035 61 100 0.0 0.0 0.00 0.00 0.00 91 1018.4
20260903034512 61 100 0.0 0.0 0.00 0.00 0.00 91 1018.4
20260903033052 61 100 0.0 0.0 0.00 0.00 0.00 91 1018.6
20260903031534 61 100 0.0 0.0 0.00 0.00 0.00 91 1018.6
20260903030134 61 101 0.0 0.0 0.00 0.00 0.00 91 1018.6
20260903024537 61 104 0.0 0.0 0.00 0.00 0.00 91 1018.6
20260903023022 61 105 0.0 0.0 0.00 0.00 0.00 90 1019.0
20260903021550 61 105 0.0 0.0 0.00 0.00 0.00 90 1018.9
20260903020057 61 105 0.0 0.0 0.00 0.00 0.00 90 1019.0
20260903014513 61 105 0.0 0.0 0.00 0.00 0.00 90 1019.1
20260903013048 61 161 0.0 0.0 0.00 0.00 0.00 90 1019.1
20260903011524 60 103 0.0 0.0 0.00 0.00 0.00 90 1018.9
20260903010009 60 173 0.0 0.0 0.00 0.00 0.00 89 1019.1
20260903004548 60 170 0.0 0.0 0.00 0.00 0.00 89 1018.9
20260903003033 60 90 0.0 0.0 0.00 0.00 0.00 89 1019.0
20260903001506 61 159 0.0 0.0 0.00 0.00 0.00 89 1019.0
20260903000045 61 157 0.0 0.0 0.00 0.00 0.00 88 1019.1
20260902234514 61 148 0.0 0.0 0.00 0.00 0.00 88 1019.5
20260902233056 61 149 0.0 0.0 0.00 0.00 0.00 88 1019.7
20260902231539 61 161 0.0 0.0 0.00 0.00 0.00 87 1019.7
20260902230012 61 198 0.0 0.0 0.00 0.00 0.00 87 1019.6
20260902224548 62 212 0.0 0.0 0.00 0.00 0.00 85 1020.0
20260902223024 63 214 0.0 0.0 0.00 0.00 0.00 83 1020.3
20260902221613 64 90 0.0 0.0 0.00 0.00 0.00 82 1020.1
20260902220037 64 199 0.0 0.0 0.00 0.00 0.00 80 1020.0
20260902214521 66 84 0.0 0.0 0.00 0.00 0.00 78 1020.0
20260902213059 67 146 0.0 0.0 0.00 0.00 0.00 74 1020.2
20260902211533 68 150 0.0 0.0 0.00 0.00 0.00 74 1020.1
20260902210012 67 89 0.0 0.0 0.00 0.00 0.00 77 1020.1
20260902204606 66 116 0.0 0.0 0.00 0.00 0.00 77 1020.5
20260902203022 67 159 0.0 0.0 0.00 0.00 0.00 74 1020.5
20260902201511 68 111 0.0 0.0 0.00 0.00 0.00 75 1020.6
20260902200038 67 100 0.0 0.0 0.00 0.00 0.00 74 1020.8
20260902194524 67 123 0.0 0.0 0.00 0.00 0.00 74 1021.1
20260902193048 67 151 0.0 0.0 0.00 0.00 0.00 73 1021.2
20260902191523 67 103 0.0 0.0 0.00 0.00 0.00 73 1021.2
20260902190055 67 88 0.0 0.0 0.00 0.00 0.00 74 1021.1
20260902184540 67 101 0.0 0.0 0.00 0.00 0.00 73 1021.2
20260902183013 67 111 0.0 0.0 0.00 0.00 0.00 71 1021.2
20260902181549 67 91 0.0 0.0 0.00 0.00 0.00 73 1021.4
20260902180024 67 164 0.0 0.0 0.00 0.00 0.00 70 1021.4
20260902174509 69 98 0.0 0.0 0.00 0.00 0.00 70 1021.3
20260902173054 69 154 0.0 0.0 0.00 0.00 0.00 71 1021.2
20260902171534 69 86 0.0 6.0 0.00 0.00 0.00 71 1021.1